Houghton, MI

12:45 AM EDT on April 23, 2018 (GMT -0400)
Houghton County Memorial

Weather History for KCMX - December, 2012

Change the Weather History Date:

Monday, December 31, 2012

  Actual Average Record
Temperature  
Mean Temperature 18 °F -  
Max Temperature 25 °F 22 °F 43 °F (2004)
Min Temperature 10 °F 10 °F -12 °F (1967)
Degree Days  
Heating Degree Days 48    
Moisture  
Dew Point 9 °F    
Average Humidity 79    
Maximum Humidity 86    
Minimum Humidity 67    
Precipitation  
Precipitation 0.00 in - - ()
Sea Level Pressure  
Sea Level Pressure 29.97 in    
Wind  
Wind Speed 16 mph (NW)    
Max Wind Speed 24 mph    
Max Gust Speed 30 mph    
Visibility 3 miles    
Events Fog , Snow    
Averages and records for this station are not official NWS values.
T = Trace of Precipitation, MM = Missing Value Source: NWS Daily Summary

Daily Weather History Graph

Daily Weather History Graph

Search for Another Location

Airport or City:

Astronomy

Dec. 31, 2012 Rise Set
Actual Time 8:40 AM EST 5:14 PM EST
Civil Twilight 8:05 AM EST 5:49 PM EST
Nautical Twilight 7:26 AM EST 6:28 PM EST
Astronomical Twilight 6:49 AM EST 7:05 PM EST
Moon 8:59 PM EST (12/31) 10:08 AM EST (12/31)
Length of Visible Light 9h 44m
Length of Day
8h 33m
Waning Gibbous, 90% of the Moon is Illuminated
Dec 31
Waning Gibbous
Jan 4
Last Quarter
Jan 11
New
Jan 18
First Quarter
Jan 26
Full

Hourly Weather History & Observations

Time (EST) Temp. Windchill Dew Point Humidity Pressure Visibility Wind Dir Wind Speed Gust Speed Precip Events Conditions
12:20 AM 21.2 °F 10.9 °F 12.2 °F 68% 29.76 in 10.0 mi SW 9.2 mph - N/A   Overcast
12:53 AM 23.0 °F 13.1 °F 14.0 °F 68% 29.80 in 10.0 mi WSW 9.2 mph - N/A   Overcast
1:53 AM 24.1 °F 14.4 °F 16.0 °F 71% 29.78 in 10.0 mi West 9.2 mph 18.4 mph N/A   Overcast
2:50 AM 24.8 °F 9.6 °F 19.4 °F 80% 29.72 in 7.0 mi West 23.0 mph 29.9 mph N/A   Overcast
2:53 AM 25.0 °F 10.9 °F 19.9 °F 81% 29.78 in 7.0 mi West 19.6 mph 29.9 mph N/A   Overcast
3:53 AM 25.0 °F 10.6 °F 19.9 °F 81% 29.81 in 8.0 mi WNW 20.7 mph 28.8 mph N/A   Overcast
4:35 AM 24.8 °F 10.3 °F 19.4 °F 80% 29.76 in 9.0 mi WNW 20.7 mph 27.6 mph 0.00 in   Overcast
4:53 AM 24.1 °F 9.4 °F 18.0 °F 77% 29.83 in 10.0 mi WNW 20.7 mph 27.6 mph 0.00 in   Overcast
5:53 AM 21.9 °F 6.2 °F 17.1 °F 82% 29.87 in 7.0 mi NW 21.9 mph 27.6 mph 0.00 in Snow Light Snow
6:53 AM 19.9 °F 3.9 °F 14.0 °F 78% 29.88 in 3.0 mi NW 20.7 mph 25.3 mph 0.00 in Snow Light Snow
7:53 AM 19.0 °F 2.4 °F 12.9 °F 77% 29.91 in 3.0 mi NW 21.9 mph 27.6 mph 0.00 in Snow Light Snow
8:13 AM 17.6 °F 1.3 °F 10.4 °F 73% 29.86 in 2.5 mi WNW 19.6 mph - 0.00 in Snow Light Snow
8:21 AM 17.6 °F 0.1 °F 10.4 °F 73% 29.86 in 4.0 mi NW 23.0 mph 28.8 mph 0.00 in Snow Light Snow
8:44 AM 17.6 °F 2.7 °F 10.4 °F 73% 29.87 in 2.0 mi WNW 16.1 mph 29.9 mph 0.00 in Snow Light Snow
8:53 AM 17.1 °F 2.5 °F 10.9 °F 77% 29.94 in 3.0 mi WNW 15.0 mph 24.2 mph 0.00 in Snow Light Snow
9:00 AM 17.6 °F 0.5 °F 12.2 °F 79% 29.87 in 1.8 mi WNW 21.9 mph 28.8 mph 0.00 in Snow Light Snow
9:11 AM 15.8 °F -0.6 °F 12.2 °F 86% 29.88 in 0.8 mi WNW 18.4 mph 24.2 mph 0.00 in Snow Light Snow
9:20 AM 15.8 °F -0.2 °F 12.2 °F 86% 29.89 in 1.0 mi WNW 17.3 mph - N/A Snow Light Snow
9:40 AM 15.8 °F -0.2 °F 10.4 °F 79% 29.90 in 3.0 mi WNW 17.3 mph 23.0 mph 0.00 in Snow Light Snow
9:45 AM 15.8 °F -1.5 °F 10.4 °F 79% 29.90 in 1.8 mi WNW 20.7 mph 25.3 mph 0.00 in Snow Light Snow
9:53 AM 16.0 °F -0.4 °F 10.9 °F 81% 29.97 in 0.8 mi NW 18.4 mph 26.5 mph 0.00 in Snow Light Snow
10:02 AM 15.8 °F -1.1 °F 10.4 °F 79% 29.91 in 1.5 mi NW 19.6 mph - 0.00 in Snow Light Snow
10:10 AM 15.8 °F -1.1 °F 8.6 °F 73% 29.91 in 2.0 mi NW 19.6 mph - 0.00 in Snow Light Snow
10:45 AM 14.0 °F -3.9 °F 10.4 °F 86% 29.94 in 0.8 mi WNW 20.7 mph - 0.00 in Snow Light Snow
10:53 AM 12.9 °F -4.4 °F 9.0 °F 84% 30.01 in 0.5 mi WNW 18.4 mph 28.8 mph 0.00 in Fog , Snow Snow
11:19 AM 12.2 °F -7.5 °F 8.6 °F 85% 29.95 in 0.2 mi WNW 24.2 mph - 0.00 in Snow Heavy Snow
11:29 AM 12.2 °F -4.8 °F 8.6 °F 85% 29.96 in 0.8 mi WNW 17.3 mph - 0.00 in Snow Light Snow
11:53 AM 10.9 °F -8.3 °F 7.0 °F 84% 30.04 in 0.8 mi NW 21.9 mph - 0.00 in Snow Light Snow
12:00 PM 10.4 °F -7.7 °F 6.8 °F 85% 29.96 in 1.0 mi NW 18.4 mph 26.5 mph 0.00 in Snow Light Snow
12:12 PM 10.4 °F -7.7 °F 6.8 °F 85% 29.97 in 0.8 mi NW 18.4 mph 24.2 mph 0.00 in Snow Light Snow
12:30 PM 10.4 °F -7.7 °F 6.8 °F 85% 29.97 in 1.2 mi NW 18.4 mph 24.2 mph 0.00 in Snow Light Snow
12:53 PM 10.9 °F -6.5 °F 5.0 °F 77% 30.04 in 1.5 mi NW 17.3 mph 24.2 mph 0.00 in Snow Light Snow
1:08 PM 10.4 °F -5.4 °F 5.0 °F 79% 29.97 in 3.0 mi NNW 13.8 mph 19.6 mph 0.00 in Snow Light Snow
1:17 PM 10.4 °F -5.4 °F 5.0 °F 79% 29.97 in 2.0 mi NNW 13.8 mph - 0.00 in Snow Light Snow
1:24 PM 10.4 °F -7.2 °F 6.8 °F 85% 29.97 in 1.2 mi NW 17.3 mph - 0.00 in Snow Light Snow
1:53 PM 10.9 °F -5.9 °F 5.0 °F 77% 30.03 in 2.0 mi NW 16.1 mph 21.9 mph 0.00 in Snow Light Snow
2:07 PM 12.2 °F -1.8 °F 5.0 °F 73% 29.97 in 3.0 mi NW 11.5 mph - 0.00 in Snow Light Snow
2:13 PM 10.4 °F -4.1 °F 6.8 °F 85% 29.97 in 1.8 mi NW 11.5 mph 19.6 mph 0.00 in Snow Light Snow
2:53 PM 12.0 °F -5.1 °F 6.1 °F 77% 30.03 in 1.5 mi NW 17.3 mph 23.0 mph 0.00 in Snow Light Snow
2:59 PM 12.2 °F -4.8 °F 3.2 °F 67% 29.97 in 3.0 mi NW 17.3 mph - 0.00 in Snow Light Snow
3:24 PM 12.2 °F -3.7 °F 5.0 °F 73% 29.98 in 2.5 mi NNW 15.0 mph - 0.00 in Snow Light Snow
3:32 PM 12.2 °F -3.1 °F 5.0 °F 73% 29.98 in 4.0 mi NW 13.8 mph - 0.00 in Snow Light Snow
3:53 PM 12.0 °F -2.7 °F 5.0 °F 73% 30.05 in 3.0 mi NNW 12.7 mph - 0.00 in Snow Light Snow
4:53 PM 12.0 °F -3.4 °F 5.0 °F 73% 30.07 in 8.0 mi NW 13.8 mph - 0.00 in   Overcast
5:53 PM 12.9 °F -2.2 °F 6.1 °F 74% 30.09 in 8.0 mi WNW 13.8 mph - 0.00 in Snow Light Snow
6:53 PM 12.9 °F -0.9 °F 5.0 °F 71% 30.10 in 10.0 mi NW 11.5 mph - 0.00 in   Overcast
7:42 PM 12.2 °F -3.7 °F 6.8 °F 79% 30.04 in 1.8 mi NW 15.0 mph - 0.00 in Snow Light Snow
7:53 PM 12.9 °F -0.2 °F 8.1 °F 81% 30.11 in 2.5 mi NNW 10.4 mph - 0.00 in Snow Light Snow
7:56 PM 12.2 °F -2.5 °F 8.6 °F 85% 30.04 in 1.5 mi NW 12.7 mph - 0.00 in Snow Light Snow
8:07 PM 12.2 °F -1.0 °F 8.6 °F 85% 30.04 in 0.8 mi NNW 10.4 mph - 0.00 in Snow Light Snow
8:20 PM 12.2 °F -2.5 °F 8.6 °F 85% 30.05 in 1.2 mi NW 12.7 mph - 0.00 in Snow Light Snow
8:48 PM 12.2 °F -2.5 °F 8.6 °F 85% 30.05 in 1.5 mi NW 12.7 mph - N/A Snow Light Snow
8:53 PM 12.0 °F -2.7 °F 7.0 °F 80% 30.12 in 1.8 mi NW 12.7 mph - 0.00 in Snow Light Snow
9:03 PM 12.2 °F -3.7 °F 6.8 °F 79% 30.05 in 2.0 mi NNW 15.0 mph 19.6 mph 0.00 in Snow Light Snow
9:12 PM 12.2 °F -3.7 °F 6.8 °F 79% 30.05 in 2.0 mi NNW 15.0 mph - 0.00 in Snow Light Snow
9:19 PM 12.2 °F -2.5 °F 6.8 °F 79% 30.05 in 4.0 mi NNW 12.7 mph - 0.00 in Snow Light Snow
9:53 PM 10.9 °F -0.8 °F 5.0 °F 77% 30.13 in 6.0 mi NW 8.1 mph - 0.00 in Snow Light Snow
10:30 PM 12.2 °F -0.2 °F 6.8 °F 79% 30.05 in 1.8 mi NNW 9.2 mph - 0.00 in Snow Light Snow
10:33 PM 12.2 °F -3.7 °F 6.8 °F 79% 30.05 in 3.0 mi NNW 15.0 mph 18.4 mph 0.00 in Snow Light Snow
10:53 PM 10.9 °F -4.7 °F 7.0 °F 84% 30.13 in 2.0 mi NW 13.8 mph - 0.00 in Snow Light Snow
11:07 PM 10.4 °F -4.1 °F 6.8 °F 85% 30.06 in 1.8 mi NNW 11.5 mph - 0.00 in Snow Light Snow
11:25 PM 10.4 °F -4.8 °F 6.8 °F 85% 30.07 in 2.5 mi NNW 12.7 mph - 0.00 in Snow Light Snow
11:53 PM 10.9 °F -2.6 °F 5.0 °F 77% 30.14 in 4.0 mi NNW 10.4 mph - 0.00 in Snow Light Snow